カタログに戻る

STARLINK-34400

運用中通信VLEO
NORAD 64463·PAYLOAD·🇺🇸 United States

打ち上げ Jun 18, 2025 から Cape Canaveral Space Force Station

Loading…

次のパス (今後24時間)

TLE

最新Source: CelesTrak SupGP

元期: Sep 15, 2026, 02:30 UTC

1 64463C 25130AB  26258.10465278  .00022499  00000+0  72348-3 0  2580
2 64463  53.1579 290.1768 0001143  89.8121 240.8193 15.31691672    15

AllMySatでSTARLINK-34400をリアルタイム追跡

Download on the App Store